{"data":{"norad_id":65418,"epoch":"2026-05-25T04:06:26.096832Z","epoch_age_seconds":63500,"freshness":"FRESH","line1":"1 65418U 25192Q   26145.17113538  .00021773  00000+0  74407-3 0  9994","line2":"2 65418  53.1581 237.1187 0001116  75.6125 284.5000 15.30244475 41091","mean_motion":15.30244475,"eccentricity":0.0001116,"inclination_deg":53.1581,"raan_deg":237.1187,"arg_perigee_deg":75.6125,"mean_anomaly_deg":284.5,"bstar":0.00074407,"rev_number":4109,"period_min":94.102610630239,"perigee_km":474.31745903082,"apogee_km":475.84709757374,"semimajor_km":6853.2192783023,"source":"CELESTRAK","updated_at":"2026-05-25T13:38:20.802233Z"}}